STARLINK-1278 (45408 NORAD) Tracking and Keplerian Element Data

This shows tracking and keplerian element data for the satellite.

Feedback or suggestion? Click here.




ElementValue
Catalog45408
NameSTARLINK-1278
Epoch Orbit1080
Epoch Day146.25001157
Epoch Year2020
RAAN296.1228
Inclination52.9863
Eccentricity0.000183
Argument of Perigee261.8946
Mean Anonmoly334.7373
Mean Motion15.03452311
Decay Rate0.0389041
L11 45408U 20019BA 20146.25001157 .03890410 00000-0 25325+0 0 9998
L22 45408 52.9863 296.1228 0001830 261.8946 334.7373 15.03452311 10808

Live tracking and technical data element details for STARLINK-1278 (NORAD 45408). STARLINK-1278 can be tracked NOW for your location showing map with azimuth and elevation plus other details from your city location.

Track the satellite on the map from your city or location and see movement details for azimuth, elevation, latitude, longitude, range, height, and movement on the map or in text.







IsCatalogInMostPopularTable: catalog: 45408, numindb: 15
Update: records affected: 1



GetName: 45408 STARLINK-1278

Hit Count: updated at: Tue, 26 May 2020 02:22:40 GMT